This is the latest recevied weather packets stored in our database for station/object CE1RLP-34. If no packets are shown the sender has not sent any weather packets the latest 10 day(s).
| Time | Temp. | Humidity | Pressure | Rain* | Wind** | Luminosity | Snow |
|---|---|---|---|---|---|---|---|
| 1777951216 | 11.11° C | 12% | 1083.2 hPa | - | - | - | - |
| 1777950317 | 11.11° C | 12% | 1083.2 hPa | - | - | - | - |
| 1777949414 | 11.67° C | 11% | 1083.2 hPa | - | - | - | - |
| 1777948514 | 12.22° C | 10% | 1083.1 hPa | - | - | - | - |
| 1777947611 | 12.78° C | 10% | 1083.1 hPa | - | - | - | - |
| 1777946714 | 12.78° C | 10% | 1082.7 hPa | - | - | - | - |
| 1777945809 | 13.33° C | 10% | 1083 hPa | - | - | - | - |
| 1777944909 | 13.33° C | 11% | 1083 hPa | - | - | - | - |
| 1777944006 | 13.33° C | 11% | 1083 hPa | - | - | - | - |
| 1777943106 | 13.33° C | 10% | 1083 hPa | - | - | - | - |
| 1777942204 | 13.89° C | 10% | 1082.9 hPa | - | - | - | - |
| 1777941303 | 14.44° C | 10% | 1082.7 hPa | - | - | - | - |
| 1777940401 | 15° C | 9% | 1082.7 hPa | - | - | - | - |
| 1777938629 | 16.11° C | 9% | 1082.3 hPa | - | - | - | - |
| 1777937728 | 17.22° C | 9% | 1082 hPa | - | - | - | - |
| 1777936826 | 18.33° C | 9% | 1081.9 hPa | - | - | - | - |
| 1777935926 | 20° C | 9% | 1081.9 hPa | - | - | - | - |
| 1777935023 | 21.67° C | 8% | 1081.7 hPa | - | - | - | - |
| 1777934123 | 23.89° C | 7% | 1081.7 hPa | - | - | - | - |
| 1777933221 | 26.11° C | 6% | 1081.6 hPa | - | - | - | - |
| 1777932321 | 28.33° C | 7% | 1081.6 hPa | - | - | - | - |
| 1777931418 | 29.44° C | 7% | 1081.5 hPa | - | - | - | - |
| 1777930518 | 30° C | 7% | 1081.5 hPa | - | - | - | - |
| 1777929616 | 30.56° C | 7% | 1081.3 hPa | - | - | - | - |
| 1777928716 | 31.11° C | 7% | 1081.3 hPa | - | - | - | - |
* Rain since midnight (hover to see other rain measurements)
** Current wind speed in m/s (hover to see current wind gust speed)